Regional Weather Roundup
Issued by NWS

Home | Current Version | Previous Version | Text Only | Print | Product List | Glossary Off
Versions: 1 2 3 4 5 6 7 8 9 10 11 12 13 14 15 16 17 18 19 20 21 22 23 24 25 26 27 28 29 30 31 32 33 34 35 36 37 38 39 40 41 42 43 44 45 46 47 48 49 50

000
ASUS43 KLOT 022300
RWRIL

ILLINOIS REGIONAL WEATHER ROUNDUP
NATIONAL WEATHER SERVICE CHICAGO/ROMEOVILLE IL
600 PM CDT SUN AUG 02 2015

NOTE: "FAIR" INDICATES FEW OR NO CLOUDS BELOW 12,000 FEET WITH NO
SIGNIFICANT WEATHER AND/OR OBSTRUCTIONS TO VISIBILITY.

* THESE STATIONS ARE NOT UNDER NWS QUALITY CONTROL. THEY ALSO MAY NOT
  REPORT WEATHER SUCH AS PRECIPITATION OR FOG.

ILZ001-002-007-009-015-016-024-030000-
NORTHWEST ILLINOIS

CITY           SKY/WX    TMP DP  RH WIND       PRES   REMARKS
MOLINE         SUNNY     90  73  57 SW15G24   29.72F HX  98
STERLING*      MOSUNNY   88  73  62 W15G26    29.68F HX  96
$$

ILZ003-004-008-010-011-017-018-030000-
NORTH CENTRAL ILLINOIS

CITY           SKY/WX    TMP DP  RH WIND       PRES   REMARKS
ROCKFORD       MOSUNNY   88  71  57 SW22G31   29.68S HX  94
$$

ILZ005-006-012>014-019>023-030000-
NORTHEAST ILLINOIS

CITY           SKY/WX    TMP DP  RH WIND       PRES   REMARKS
CHICAGO-OHARE  MOSUNNY   89  69  51 SW16G32   29.65F HX  93
CHICAGO-MIDWAY MOSUNNY   92  68  45 SW24G35   29.67F HX  96
AURORA         SUNNY     89  70  53 SW24G31   29.69F HX  94
WAUKEGAN       SUNNY     88  69  53 SW23G36   29.62S HX  92
DUPAGE AIRPORT SUNNY     88  70  55 SW26G38   29.67F HX  93
WHEELING       SUNNY     90  67  46 SW21G39   29.64F HX  93
NORTHERLY ISL    N/A     89  66  46 SW9         N/A  HX  91
$$

LMZ740>746-030000-
SOUTHERN LAKE MICHIGAN

STATION/POSITION SKY/WX   TEMP    WIND        PRES    VSBY  WAVE
                          AIR SEA DIR/SP/G                  HT/PER
                          (F)     (DEG/KT/KT) (MB)    (MI)  (FT/S)
HARRISON CRIB              87     220/ 23/ 29   N/A
BURNHAM HARBOR             90     200/  9/ 22   N/A
CALUMET HARBOR             89     220/ 10/ 17   N/A
BURNS HARBOR               88     220/ 23/ 26 1005.4F
MICHIGAN CITY              86     200/ 26/ 33   N/A
MICHIGAN CITY 6N           83 74  230/ 17/ 25   N/A           3/ 4
ST. JOSEPH                 78 74  240/ 16/ 17   N/A           3/ 4
$$

ILZ025>027-034>036-040-047-049-050-058-095>099-030000-
WEST-CENTRAL ILLINOIS

CITY           SKY/WX    TMP DP  RH WIND       PRES   REMARKS
QUINCY         SUNNY     88  73  61 SW13      29.81F HX  95
MACOMB*        SUNNY     88  73  60 SW12G21   29.80F HX  95
$$

ILZ028>032-037-038-041>044-048-051>054-059>061-030000-
CENTRAL ILLINOIS

CITY           SKY/WX    TMP DP  RH WIND       PRES   REMARKS
DECATUR        SUNNY     90  69  50 SW16G24   29.83F HX  94
PEORIA         MOSUNNY   91  70  49 SW16      29.77F HX  96
SPRINGFIELD    SUNNY     88  70  55 SW8G17    29.82F HX  93
TAYLORVILLE    NOT AVBL
$$

ILZ033-039-045-046-055>057-062-063-030000-
EAST-CENTRAL ILLINOIS

CITY           SKY/WX    TMP DP  RH WIND       PRES   REMARKS
CHAMPAIGN      MOSUNNY   87  70  56 SW13      29.83F HX  92
MATTOON        SUNNY     88  66  48 S8        29.84F HX  90
$$

ILZ079-100>102-030000-
SOUTHWEST ILLINOIS

CITY           SKY/WX    TMP DP  RH WIND       PRES   REMARKS
CAHOKIA*       MOSUNNY   93  67  42 SW5       29.85F HX  96
$$

ILZ064>066-069>071-074>076-080>082-084>086-088>090-092>094-030000-
SOUTH-CENTRAL ILLINOIS

CITY           SKY/WX    TMP DP  RH WIND       PRES   REMARKS
CARBONDALE     SUNNY     88  72  58 S9        29.88F HX  94
MARION         MOSUNNY   90  72  55 S9        29.90F HX  96
MT. VERNON     MOSUNNY   91  72  52 S12       29.88F HX  98
SALEM*         SUNNY     91  70  50 S9        29.87F HX  96
$$

ILZ067-068-072-073-078-083-087-091-030000-
SOUTHEAST ILLINOIS

CITY           SKY/WX    TMP DP  RH WIND       PRES   REMARKS
LAWRENCEVILLE  SUNNY     88  70  55 SW12      29.88F HX  93
FLORA*         SUNNY     89  69  52 SW7       29.87F HX  93
HARRISBURG*    SUNNY     88  72  59 S8        29.91S HX  94
ROBINSON*      SUNNY     87  72  61 S9        29.87F HX  92
CARMI*         MOSUNNY   85  69  58 S9        29.88F HX  89
$$

ABBREVIATIONS USED IN REMARKS
   TC - TEMPERATURE IN CELSIUS
  WCI - WIND CHILL INDEX
   HX - HEAT INDEX
  VSB - VISIBILITY
$$




USA.gov is the U.S. government's official web portal to all federal, state and local government web resources and services.